Wind_Speed
6 3 2 1 1 2 2 1 1 2 3 4 5 5 5 5 6 7 8 9 9 10 12 13 13 13 11 11 12 12 10 9 11 11 8 7 7 7 9 11 13 15 16 15 15 14 13 13 12 12 12 13 12 10 8 5 6 9 10 9 8 8 9 8 7 8 8 6 7 9 10 10 9 8 8 8 6 6 6 6 6 6 6 5 5
6 5 3 3 3 4 4 3 1 1 2 3 5 5 6 6 7 8 8 9 9 10 12 13 14 13 11 11 12 11 11 8 7 9 9 10 11 11 13 14 13 13 16 16 16 16 15 14 14 13 14 15 14 12 10 8 7 9 11 11 10 9 9 9 9 9 9 8 7 9 10 10 10 10 10 10 9 7 7 7 7 6 7 6 5
6 6 5 4 5 4 4 3 2 1 1 2 3 4 5 6 7 9 9 9 10 10 11 12 13 12 12 12 13 12 12 11 11 12 13 13 14 15 16 17 15 14 15 15 16 16 16 16 15 15 16 16 16 15 13 12 10 11 12 13 12 10 10 11 11 10 10 9 8 9 11 10 10 10 11 12 11 9 8 8 8 8 8 7 6
7 6 5 4 4 4 3 2 1 1 1 2 4 5 7 7 7 9 9 9 10 10 10 10 11 11 11 12 13 14 13 13 13 14 14 15 16 17 17 18 18 17 16 16 16 16 16 17 17 17 17 16 17 16 15 15 13 13 13 15 14 12 11 11 12 11 11 11 10 10 10 10 11 10 11 13 13 11 10 10 9 9 9 8 7
6 5 4 3 3 3 2 1 1 0 2 3 5 6 6 6 6 7 9 9 10 10 11 11 11 11 11 12 13 13 14 14 14 14 14 15 16 16 17 18 19 19 19 17 17 17 17 17 19 19 19 19 19 18 17 17 17 16 16 16 16 14 13 12 13 13 12 12 12 12 11 11 11 10 10 12 14 14 12 12 11 10 10 9 9
5 5 4 3 3 2 2 2 1 1 3 4 5 6 5 5 6 7 8 10 10 11 11 12 12 12 12 12 13 13 14 14 14 15 15 15 14 15 16 17 18 19 20 19 20 20 19 19 20 21 21 21 21 21 20 18 18 18 17 17 18 17 14 13 14 14 14 13 13 13 13 12 12 11 9 10 14 16 15 14 13 11 11 11 11
5 4 4 4 3 3 3 2 0 1 2 4 4 4 4 4 6 7 9 9 9 10 10 11 12 13 13 14 14 15 15 15 15 16 16 16 15 15 15 16 17 18 19 20 21 21 21 21 22 22 22 22 21 22 22 21 19 18 18 19 19 19 17 15 14 14 15 15 14 14 15 14 13 12 11 9 12 17 17 16 16 14 13 13 13
3 4 4 4 2 3 3 1 0 2 3 3 3 2 3 4 5 7 9 8 9 10 10 11 12 13 14 15 16 17 16 15 15 16 17 17 17 17 17 16 16 17 17 18 19 20 20 21 21 21 22 22 22 22 22 23 22 20 20 21 20 20 20 18 16 15 16 16 16 15 16 16 15 13 13 10 11 16 18 17 17 15 14 14 14
3 3 4 3 3 2 2 1 1 2 3 2 2 2 3 4 5 6 7 8 9 10 10 10 11 12 14 15 16 16 16 15 15 15 16 16 16 17 17 18 18 18 17 17 18 19 19 19 20 20 21 22 22 23 23 23 23 22 22 22 21 21 21 21 19 17 16 17 17 17 16 17 16 15 14 12 11 15 19 18 17 16 15 15 15
3 3 3 3 4 4 4 4 4 3 3 3 4 4 4 5 5 6 6 7 8 10 10 9 9 11 13 14 14 14 14 14 14 13 13 14 15 17 18 18 18 18 18 18 18 18 18 18 19 20 20 21 21 22 23 23 22 21 23 24 23 22 22 23 23 20 17 18 19 18 18 18 18 17 16 15 13 14 18 19 17 17 17 16 17
5 5 5 6 7 8 8 8 7 5 5 6 7 7 6 6 6 5 5 6 8 10 9 8 8 9 11 13 12 11 11 11 10 10 11 13 15 16 17 17 17 18 18 19 19 18 19 19 19 19 20 20 20 21 21 22 22 21 23 23 24 25 23 24 24 22 20 20 20 19 19 20 20 19 18 17 15 14 17 20 19 18 19 18 18
9 10 11 11 11 10 10 9 8 7 8 10 10 9 8 7 7 6 6 6 8 11 9 8 9 9 11 11 9 10 8 5 8 9 10 12 13 13 14 15 17 19 19 20 20 20 20 21 20 20 20 20 21 21 21 22 22 23 23 23 24 27 25 24 25 24 22 21 21 21 21 21 21 21 20 19 18 16 17 20 20 19 20 19 19
13 13 14 13 13 11 10 9 9 9 11 11 11 10 8 7 7 7 7 8 11 14 12 9 10 11 12 11 10 8 4 4 9 11 10 12 13 12 13 14 16 18 18 19 19 21 23 24 24 24 24 24 23 23 23 22 23 23 23 23 23 25 25 24 24 25 24 24 24 23 23 23 23 23 22 21 20 18 17 20 21 20 20 21 21
14 14 14 12 12 11 10 11 11 11 11 11 10 9 9 8 7 8 9 10 13 16 15 11 11 11 8 8 10 7 4 4 7 11 11 12 13 13 13 14 17 19 17 17 19 21 23 23 24 25 26 27 27 27 27 25 24 23 22 23 23 24 25 25 26 27 26 26 27 25 24 25 25 25 25 23 22 21 19 19 21 22 22 22 22
14 13 13 12 11 11 11 11 11 11 10 9 9 9 10 10 10 9 8 9 11 14 16 14 13 10 4 4 5 4 6 7 9 13 11 10 11 14 15 14 18 20 18 18 20 21 22 23 24 26 27 27 28 29 29 28 26 25 24 24 24 24 23 24 28 30 29 29 28 26 25 26 26 26 26 25 24 23 21 20 22 23 23 23 22
13 12 12 12 11 11 11 11 12 10 9 9 10 10 11 11 11 11 9 9 10 12 14 15 15 11 4 2 2 2 3 5 14 16 9 8 10 12 15 17 20 20 19 20 22 23 23 24 26 28 28 27 27 27 28 30 28 26 25 25 26 27 25 24 27 30 31 29 28 27 27 27 28 27 27 26 26 25 23 22 23 23 23 23 22
11 10 10 10 10 10 9 10 10 10 9 10 10 11 11 11 11 11 10 10 9 9 11 12 15 14 8 3 1 2 1 6 12 8 6 10 9 10 16 19 21 19 20 23 23 23 22 24 28 28 27 25 24 24 25 25 25 25 25 25 27 28 27 26 26 29 31 28 28 29 29 30 29 30 30 28 27 26 25 25 24 23 24 24 24
10 9 8 8 9 9 8 8 8 9 9 9 9 10 11 12 12 11 11 9 7 9 11 10 11 14 13 9 4 3 3 7 7 3 8 9 4 11 18 21 21 18 20 26 25 23 22 25 27 25 25 25 25 24 23 23 23 24 24 24 26 27 27 28 27 28 29 27 29 31 30 31 32 32 33 31 29 28 28 27 26 25 25 25 25
9 9 8 8 8 9 8 7 7 8 7 7 9 11 12 13 12 12 12 11 10 12 14 11 10 12 13 11 9 9 9 9 5 3 7 4 5 14 17 20 21 17 22 27 26 24 23 25 25 22 24 25 25 26 25 24 24 24 25 26 26 25 25 26 27 29 30 26 27 30 30 31 33 33 34 34 31 29 30 29 29 27 26 27 27
9 9 8 8 7 7 7 7 7 8 8 9 11 12 13 13 12 13 14 15 15 16 17 16 14 14 13 13 13 13 13 14 12 7 4 4 9 14 17 23 20 14 21 25 24 24 23 24 23 21 24 26 26 27 27 26 25 25 26 26 25 25 25 25 26 27 29 27 25 27 29 30 31 31 33 35 33 31 31 31 30 30 28 28 27
9 8 8 8 7 7 7 7 9 10 10 11 12 12 13 13 13 14 16 18 17 17 18 18 18 17 16 17 16 15 14 15 17 13 6 4 6 8 17 25 19 14 20 24 23 22 21 23 23 22 24 27 28 29 29 29 29 29 28 27 24 24 24 24 25 27 27 28 27 26 28 29 29 30 32 35 35 33 32 32 32 31 30 29 28
10 9 9 8 8 9 9 10 11 11 12 13 13 13 13 14 15 16 17 18 17 17 18 18 19 20 20 20 19 16 13 12 15 14 9 6 5 7 13 18 17 17 21 24 23 19 20 23 23 24 26 29 31 31 32 32 32 32 30 27 24 23 24 24 24 25 25 26 27 26 26 27 28 30 32 34 36 35 34 33 33 33 32 31 30
11 11 11 10 10 10 11 12 13 13 14 14 14 15 15 16 16 16 17 18 18 18 19 18 20 22 22 23 21 19 16 13 13 14 10 7 6 6 11 16 16 18 22 24 21 17 19 21 23 25 27 30 33 33 34 33 32 33 31 28 26 25 26 26 25 24 23 23 24 26 25 25 27 29 31 33 35 36 35 34 34 34 33 33 33
14 14 12 11 11 12 13 13 14 15 15 16 16 16 16 16 17 17 18 19 19 19 19 19 21 23 24 24 23 22 22 18 17 17 15 12 10 6 10 16 13 15 22 23 19 18 17 19 23 25 27 31 34 35 36 35 34 33 32 32 30 29 28 27 26 24 23 23 23 24 25 25 26 27 29 31 33 35 36 35 35 35 34 35 34
15 15 13 12 13 14 14 15 15 15 15 16 16 15 16 16 18 19 19 19 19 20 21 22 22 23 23 22 22 23 23 21 20 20 19 17 15 10 11 15 11 14 21 20 19 18 14 17 23 24 27 31 34 36 36 36 36 35 35 35 33 31 31 29 27 26 25 24 23 23 24 24 25 25 27 30 31 33 36 38 37 36 36 37 36
16 15 13 12 14 15 15 16 16 16 16 16 16 16 16 17 19 20 20 19 19 21 23 23 23 22 22 22 23 23 22 21 20 21 21 19 17 13 12 13 11 13 17 18 18 16 13 19 23 23 27 32 34 37 37 36 36 36 36 36 35 33 33 32 30 28 26 24 24 24 24 24 24 26 27 28 30 32 34 38 40 39 38 38 38
15 14 13 13 14 15 15 16 16 16 16 16 17 17 17 18 19 20 20 19 20 22 23 22 23 23 22 21 22 22 22 21 20 21 20 19 18 17 14 10 8 9 12 13 14 14 17 24 23 20 27 33 35 37 36 36 35 35 36 36 36 36 34 34 33 30 28 26 25 25 25 25 24 25 27 26 29 32 34 35 39 42 41 40 40
15 14 14 13 14 15 16 16 16 16 16 16 17 18 18 19 20 20 21 20 21 23 22 23 23 23 22 22 22 22 22 21 21 20 20 18 17 17 16 12 8 7 8 9 9 11 19 26 23 22 29 34 36 37 35 35 35 36 37 37 37 37 35 35 35 32 30 28 27 26 25 26 25 24 25 26 27 30 34 36 38 41 43 43 42
15 15 14 14 15 15 16 18 17 17 18 17 18 18 19 20 21 21 21 20 22 23 22 23 23 22 23 24 23 22 21 21 21 20 19 18 17 16 15 14 10 7 5 7 7 9 19 26 24 27 34 35 36 36 35 34 34 35 37 38 37 36 36 36 35 33 31 30 28 26 26 26 26 24 24 24 25 27 32 37 39 40 41 43 44
16 15 15 15 15 16 17 19 19 19 19 19 19 19 19 21 21 21 20 19 21 23 22 23 23 23 25 25 24 22 21 21 21 20 19 18 17 16 14 13 11 8 6 7 7 10 21 27 26 30 36 38 37 35 34 34 34 34 36 38 37 37 37 37 36 34 33 31 28 27 28 28 26 26 25 23 21 24 28 34 40 41 41 43 44
16 15 14 14 15 16 17 19 20 20 20 20 20 20 20 21 21 21 20 19 21 23 22 22 22 23 25 25 25 24 23 22 22 21 20 18 17 17 15 14 13 10 9 8 7 10 20 26 28 32 35 37 37 35 34 35 35 36 36 36 37 38 39 39 38 36 34 32 30 30 31 29 28 26 25 24 21 20 23 28 35 40 43 44 44
16 15 14 14 14 16 17 19 20 21 21 21 21 21 21 21 20 21 19 19 21 22 22 21 21 23 25 25 25 25 24 24 23 22 21 19 18 17 16 15 14 12 12 10 8 13 19 22 27 32 34 36 37 35 35 37 36 36 36 36 37 38 38 39 39 37 35 33 33 33 32 31 29 27 26 25 23 21 20 22 28 35 42 46 45
16 14 13 12 13 15 17 18 19 20 21 21 21 20 21 21 20 20 19 20 21 21 21 21 21 23 25 25 24 25 25 25 25 24 23 22 21 19 17 15 14 14 13 12 11 15 20 22 24 30 33 34 35 35 36 38 38 37 36 37 37 37 37 37 37 37 36 35 35 34 33 32 30 28 28 26 25 24 21 19 22 28 36 43 45
15 13 12 12 12 14 17 18 19 20 20 20 20 20 22 22 20 19 18 19 20 20 20 20 20 21 24 24 24 24 25 26 25 24 24 23 22 20 17 15 14 16 16 15 14 15 19 23 25 28 31 31 33 35 36 36 37 38 38 37 36 36 36 36 36 37 37 36 35 34 34 33 31 30 29 27 26 25 24 21 20 22 28 37 43
14 13 13 14 14 16 18 19 19 19 19 19 20 21 21 21 20 19 17 18 18 18 19 19 18 19 22 23 23 23 25 26 25 24 23 23 22 20 18 16 16 17 18 17 15 15 17 21 24 26 28 29 30 33 34 34 35 38 38 37 36 37 38 37 37 38 38 37 36 35 35 34 33 32 31 29 27 25 24 24 22 20 21 29 38
15 15 15 15 16 17 19 20 19 19 19 19 19 20 20 20 19 18 17 17 17 17 17 17 17 17 19 21 21 22 25 25 25 24 23 22 22 21 19 18 17 17 18 17 16 16 17 19 21 23 25 27 28 30 33 34 36 38 37 38 38 39 39 38 37 38 39 39 38 38 39 38 36 34 31 30 28 25 24 24 23 21 19 22 30
17 17 17 16 17 18 19 20 19 18 18 18 18 19 19 19 18 17 17 16 15 16 16 16 15 15 17 18 19 21 23 24 24 24 22 21 21 20 20 19 18 18 18 18 17 18 18 19 20 22 24 25 26 28 31 33 37 38 37 37 38 38 39 39 39 38 39 41 41 41 42 40 37 34 32 31 28 24 24 24 23 22 21 20 23
18 18 17 17 17 18 19 19 19 18 18 17 18 18 18 18 17 16 15 14 14 14 15 15 13 13 15 16 17 20 22 22 22 22 22 21 20 19 19 19 18 18 18 19 18 18 18 19 20 22 25 25 26 27 30 31 33 35 37 39 37 37 38 39 41 41 41 42 43 42 41 39 37 35 33 32 27 24 24 25 24 24 23 21 20
18 18 18 18 18 18 19 19 18 18 17 17 17 17 16 16 15 14 13 12 11 13 14 13 11 12 15 16 15 18 19 20 21 21 21 21 20 19 19 18 18 18 18 19 19 19 19 20 21 22 24 26 26 27 30 32 30 30 33 35 36 38 39 38 41 44 44 43 43 41 39 37 36 34 32 30 28 28 29 28 26 25 24 22 20
17 17 17 18 18 18 18 18 18 17 17 16 16 16 15 14 13 12 11 9 9 11 13 12 10 12 15 16 15 16 17 18 19 20 20 21 20 20 19 18 18 18 19 20 20 20 20 20 21 22 24 25 27 28 31 32 29 28 31 31 32 37 40 39 39 40 42 42 41 40 37 35 34 34 34 34 33 33 32 30 28 27 25 24 22
17 17 17 17 17 18 18 18 17 17 16 16 15 15 14 13 12 11 10 8 8 10 11 10 10 13 15 15 15 16 17 18 19 19 20 20 21 21 21 20 19 20 20 22 22 22 20 19 21 22 22 23 26 29 30 30 28 28 32 32 30 33 38 40 38 35 35 37 38 38 37 36 37 39 38 37 36 34 32 29 28 28 27 25 24
18 17 17 16 16 17 17 17 17 16 16 15 14 13 12 11 10 11 9 8 8 9 10 10 11 14 15 14 14 15 16 17 18 19 20 21 21 22 22 22 22 22 22 23 24 23 21 19 21 22 21 21 26 28 28 29 30 30 31 31 29 32 34 33 33 32 29 29 34 41 44 40 37 39 40 37 36 34 30 30 30 30 29 27 26
18 17 17 17 17 16 16 16 16 16 15 13 12 11 11 10 10 9 8 8 9 8 8 10 13 15 14 13 13 14 16 17 19 20 20 21 22 23 24 25 24 24 24 24 24 25 23 21 23 24 21 21 27 29 29 30 32 31 31 30 28 29 28 24 24 29 31 32 35 40 45 41 33 34 38 38 36 35 33 33 33 31 30 28 27
18 18 17 17 17 15 15 15 15 15 13 11 10 10 10 9 8 6 5 8 10 8 7 10 13 15 15 13 13 15 17 19 20 22 22 22 23 24 25 26 26 25 25 25 25 26 25 24 24 26 25 25 27 30 32 33 34 32 32 32 28 27 26 24 22 28 35 38 36 35 38 39 33 32 37 39 38 36 35 34 32 30 29 27 26
18 18 18 18 17 16 15 15 14 13 12 10 9 9 9 8 6 4 5 8 9 8 7 9 13 15 16 15 15 16 17 20 21 22 23 24 24 25 26 28 27 26 25 25 26 26 27 26 25 28 31 30 29 31 35 36 36 34 33 33 31 28 27 27 28 33 39 39 35 32 34 37 35 32 34 37 36 33 32 32 31 31 30 30 28
19 19 19 19 18 17 15 15 14 12 11 9 8 8 8 6 5 6 7 9 9 8 7 8 10 14 16 16 16 17 18 20 22 23 25 25 24 26 28 28 27 26 25 26 28 28 29 29 28 30 34 34 32 34 38 38 36 35 34 35 36 32 30 31 33 37 39 35 31 28 27 32 34 29 28 33 34 32 32 32 32 32 32 32 31
18 18 18 19 19 18 16 14 14 12 10 8 7 7 7 6 5 7 8 9 8 8 6 5 6 10 14 15 16 17 19 20 21 24 25 24 24 26 27 27 27 26 26 28 29 29 29 30 31 32 34 35 35 35 37 38 36 36 36 36 36 34 33 34 33 33 34 31 28 23 22 29 33 26 26 34 36 34 34 33 33 33 32 32 31
18 17 16 16 18 18 16 14 13 13 10 8 7 6 6 6 6 6 9 10 10 8 5 3 2 7 12 14 15 17 19 20 21 23 23 21 24 27 26 27 28 27 28 30 29 27 29 30 31 33 33 34 35 36 36 36 36 37 37 35 33 32 32 31 27 27 29 29 27 24 23 29 31 26 28 36 36 34 35 33 32 32 32 31 30
19 16 15 15 16 16 16 14 13 13 12 10 9 8 7 7 7 8 9 11 12 10 8 5 4 5 9 12 14 16 18 20 21 23 22 21 24 26 24 26 28 28 30 32 29 28 30 31 32 34 34 35 36 37 37 36 36 38 37 34 33 33 30 24 19 22 27 28 28 25 22 25 28 26 28 33 32 31 33 33 32 31 29 28 26
18 16 16 16 15 15 15 14 13 13 12 12 11 10 10 9 9 9 9 9 10 9 8 8 7 7 8 11 14 15 17 19 21 22 22 23 26 25 23 25 29 29 31 33 31 31 32 33 34 35 35 37 38 38 38 37 37 37 36 34 35 35 29 22 20 24 26 25 25 23 19 23 28 26 25 26 27 28 29 29 28 26 22 21 20
18 18 18 18 16 14 13 13 12 12 11 11 10 11 11 11 10 10 9 8 8 9 9 8 7 8 9 11 14 14 15 18 21 21 21 22 26 26 23 24 28 29 31 32 32 33 34 34 36 36 36 38 38 38 38 38 38 38 37 36 38 36 32 30 28 24 17 16 24 25 21 23 27 25 21 17 15 18 22 22 22 21 20 20 19
Wind_Direction
200 193 183 187 228 258 270 282 68 58 50 47 37 28 16 5 353 346 340 332 325 319 314 314 319 324 332 338 343 349 340 306 290 287 280 291 297 294 300 298 292 284 280 281 281 283 283 287 287 281 280 281 279 275 282 270 247 260 259 262 260 232 218 212 216 219 216 200 193 198 204 215 218 215 216 213 219 228 213 195 187 177 175 175 173
194 197 201 223 234 246 259 265 281 8 19 30 25 15 2 351 343 340 335 329 325 320 314 310 314 318 323 329 333 339 341 329 304 292 293 296 295 298 300 295 290 284 279 280 282 282 281 283 285 280 277 279 280 276 272 267 257 261 260 259 262 247 225 217 219 221 214 204 203 204 205 211 215 216 219 214 211 222 221 205 191 184 181 179 182
214 216 218 233 243 254 258 262 278 314 319 332 346 344 344 340 337 338 336 335 333 330 326 321 319 321 322 323 324 325 322 318 309 303 302 301 298 299 294 288 287 282 275 273 277 279 279 279 280 278 274 272 275 276 273 267 260 257 257 258 261 256 240 226 220 221 214 210 212 208 208 213 216 217 218 218 212 212 221 215 198 191 186 181 190
214 214 219 234 246 252 256 270 289 304 306 317 333 336 339 342 343 345 343 342 338 336 337 335 332 330 329 325 324 325 322 315 308 303 300 298 297 296 293 290 289 285 277 273 272 275 277 276 275 272 268 265 265 267 266 263 261 259 254 255 260 261 253 234 220 224 219 215 220 216 212 211 214 216 215 220 216 208 217 222 207 196 191 183 187
214 211 208 221 244 249 246 236 223 337 343 338 339 336 342 354 354 349 348 345 339 338 340 340 340 338 337 333 328 327 327 324 317 310 304 301 298 295 294 294 293 291 286 281 277 277 278 278 277 273 268 265 264 262 259 255 257 261 255 250 256 262 258 243 226 227 225 219 222 222 218 212 211 213 214 221 218 209 214 223 216 201 194 185 182
218 210 210 222 236 224 189 185 199 18 351 335 329 331 350 9 360 350 353 351 345 344 344 341 340 338 337 335 330 326 325 324 322 318 315 312 307 303 301 299 297 296 294 289 286 284 283 282 283 281 275 270 267 265 261 255 252 253 253 250 254 260 257 249 238 231 230 225 222 223 221 215 214 214 214 223 219 210 213 221 220 209 199 188 182
215 211 223 224 222 213 193 186 15 54 10 337 327 334 360 12 0 352 350 350 347 344 342 340 336 333 331 330 327 325 322 319 318 317 318 318 314 312 310 307 304 300 297 294 292 291 289 288 287 286 283 279 274 269 266 263 257 249 248 248 250 255 255 251 243 233 231 228 225 225 224 217 216 216 214 222 219 210 212 220 221 215 203 194 188
214 218 222 212 207 221 211 206 321 62 32 346 328 338 3 13 4 351 345 344 343 338 337 335 330 328 326 324 323 322 321 319 317 316 317 317 316 317 316 314 313 310 305 300 296 294 293 292 291 290 289 287 283 278 273 268 264 254 247 246 244 248 252 252 247 238 234 231 227 227 227 220 216 218 216 218 219 211 210 217 222 219 207 199 194
205 205 200 189 171 182 183 156 131 60 43 8 20 18 3 3 358 353 347 341 342 341 339 335 329 327 326 326 324 321 319 319 318 318 318 317 318 320 320 318 317 316 314 310 306 303 300 297 295 295 295 293 290 286 282 274 267 260 253 250 245 241 245 252 253 245 238 232 230 227 227 224 218 218 218 215 212 209 209 213 220 221 211 203 199
172 164 162 163 145 127 109 105 94 78 89 84 69 51 28 13 2 1 356 352 0 360 349 340 334 333 334 333 330 324 320 322 322 320 322 324 325 325 324 324 321 320 320 319 317 315 311 308 304 301 300 300 297 293 291 284 273 263 256 254 250 242 240 247 251 248 239 231 230 228 225 225 222 220 219 215 210 208 211 213 216 219 216 210 204
116 108 116 124 121 109 99 93 87 92 99 81 65 52 42 32 22 19 21 31 28 13 359 344 334 332 334 331 334 335 329 330 338 341 339 334 329 326 324 324 324 323 324 323 323 322 321 319 314 310 307 306 304 301 298 294 286 272 262 257 253 249 243 240 241 242 238 230 228 228 226 225 224 223 221 216 212 210 212 213 214 217 218 215 210
102 102 107 109 107 104 103 101 101 106 94 79 67 56 50 41 37 34 37 51 34 18 12 355 337 329 330 334 347 350 342 6 23 8 355 350 342 335 331 330 331 330 328 324 322 323 324 323 321 319 317 315 311 307 303 299 295 287 277 267 256 253 250 240 236 236 236 231 228 228 227 226 225 225 224 219 215 212 211 214 215 215 217 217 215
103 104 107 106 101 101 107 112 109 99 87 82 74 64 57 50 49 47 43 45 35 24 16 6 359 349 337 343 2 14 39 65 32 19 13 13 10 0 356 359 357 350 340 333 330 330 328 326 324 323 322 319 315 310 306 301 299 296 291 281 265 258 256 248 240 237 235 234 232 229 227 227 226 225 225 222 218 216 213 214 215 213 214 215 215
105 107 108 106 104 105 106 105 98 89 86 82 73 64 54 48 47 47 48 46 43 34 24 20 17 1 339 339 353 13 24 337 359 16 20 20 20 17 15 18 16 9 3 0 355 349 345 341 337 333 330 325 320 314 309 304 302 302 299 293 280 268 261 253 248 243 236 231 233 233 229 227 227 227 226 224 219 218 216 213 212 211 211 212 213
110 110 105 102 102 101 96 91 84 78 79 75 65 59 50 45 42 40 43 44 46 43 38 39 29 14 359 356 351 348 338 324 334 343 353 13 15 16 15 8 9 10 11 13 6 360 357 355 354 350 344 338 332 324 316 311 306 304 303 299 292 280 268 256 250 248 241 233 232 235 232 228 228 229 228 227 223 219 218 213 210 212 210 209 210
113 109 102 98 94 90 83 75 72 65 63 63 58 54 48 43 41 37 35 37 43 45 47 49 43 37 24 336 300 323 338 328 326 316 324 5 3 12 10 358 1 4 5 4 359 356 355 358 2 0 355 349 344 339 331 319 309 308 309 305 300 291 280 268 256 250 247 240 237 237 233 230 230 231 231 229 226 221 218 215 211 213 212 208 208
106 103 98 94 87 80 70 64 64 58 56 59 58 54 50 45 40 38 40 43 45 48 54 54 51 55 56 46 327 342 294 315 326 298 303 341 345 8 6 358 3 4 0 356 353 354 358 4 9 6 4 5 3 359 352 337 323 321 321 314 306 299 291 284 273 262 256 247 243 240 233 230 230 230 231 230 229 226 220 217 213 213 214 210 208
96 95 93 87 79 72 65 57 55 56 56 57 59 56 51 49 43 41 46 48 48 50 52 51 51 55 58 69 70 35 345 328 336 292 319 328 325 353 355 358 3 3 1 358 356 358 3 10 12 8 9 16 19 17 15 8 359 352 344 334 322 311 302 296 289 281 270 255 247 245 238 235 234 230 230 229 229 230 226 221 215 213 214 213 211
88 86 83 77 72 70 67 64 59 57 56 57 61 60 56 54 49 51 57 56 58 59 53 46 47 49 50 61 65 56 43 25 23 321 323 319 326 343 349 355 358 359 1 2 1 360 2 10 11 5 3 8 12 14 14 13 11 8 2 356 347 336 327 316 307 298 287 270 256 251 245 240 236 232 231 230 228 229 229 227 221 215 214 214 214
81 76 72 71 72 72 71 73 72 66 65 69 70 66 60 59 59 65 67 64 64 66 62 57 52 49 48 54 59 60 55 44 35 10 327 296 322 338 344 346 352 1 0 0 1 358 358 6 8 2 356 355 358 360 1 1 359 359 357 355 354 351 349 342 334 322 305 291 276 263 256 249 242 235 234 233 229 228 229 229 226 220 217 214 215
77 70 66 66 69 76 78 77 77 76 76 78 74 65 60 61 68 72 72 70 68 68 66 63 58 56 54 55 55 54 51 42 33 25 11 330 326 334 337 340 345 352 355 358 357 355 358 2 4 3 355 350 350 350 351 352 350 348 348 347 350 350 351 351 351 347 333 317 302 283 268 262 255 243 237 234 230 228 227 228 228 225 221 216 214
80 77 75 76 78 83 84 82 82 80 79 77 69 65 67 72 75 77 75 71 68 66 66 64 62 63 62 59 55 50 44 35 28 24 17 360 336 324 334 337 334 334 345 354 352 351 357 358 358 360 355 349 348 346 346 346 346 346 346 343 343 344 344 346 350 352 350 341 325 306 287 276 266 252 240 232 228 228 229 228 227 226 224 220 216
89 86 83 82 84 84 84 84 84 80 77 72 69 73 78 80 80 78 74 70 67 67 67 64 64 65 64 61 58 53 48 40 30 26 22 5 342 325 334 335 325 323 335 345 348 349 352 355 356 355 351 347 348 347 346 345 345 347 347 344 341 339 338 340 344 347 347 346 339 328 314 297 283 267 247 233 227 227 229 227 225 224 223 222 219
90 85 80 79 82 84 85 87 85 82 79 75 77 84 84 83 81 76 72 70 68 65 64 63 66 66 63 61 59 55 51 46 39 34 29 18 10 353 339 340 327 319 331 339 344 346 349 354 353 350 347 346 348 348 347 346 345 347 348 345 341 339 339 339 340 341 340 338 338 336 330 316 302 284 261 243 232 228 226 224 222 222 222 221 220
89 83 79 81 85 87 88 89 88 86 85 82 85 88 85 83 80 75 73 71 67 66 69 70 70 67 63 61 58 55 50 46 41 37 32 26 20 4 344 345 331 317 329 337 340 340 345 351 348 346 347 347 347 346 346 346 345 347 346 342 339 340 341 342 340 338 336 334 332 333 334 329 319 304 279 256 243 234 226 223 223 222 221 220 220
90 85 84 89 92 92 92 92 91 90 89 88 89 88 85 83 81 78 76 72 69 72 76 75 71 66 63 60 56 53 49 44 42 39 34 28 22 9 351 344 333 323 327 333 340 340 337 343 345 346 347 347 346 345 345 346 344 344 343 340 339 340 340 341 341 339 336 333 331 331 333 333 329 321 303 277 258 244 231 227 227 223 221 221 220
93 90 91 97 99 98 96 95 94 93 91 91 91 89 87 85 84 83 80 75 74 76 76 71 66 62 59 58 56 52 48 46 45 43 39 33 25 18 8 354 338 332 328 327 339 342 335 338 342 348 348 345 345 345 344 344 343 342 341 340 339 339 339 340 339 339 337 334 331 330 331 332 331 328 321 304 278 256 241 235 231 224 222 221 218
101 100 98 101 104 102 99 97 97 95 93 93 92 90 89 88 87 85 81 77 75 74 71 66 62 59 57 57 58 54 49 47 46 43 41 38 31 24 18 12 355 338 332 328 336 339 338 342 342 342 345 344 342 344 344 342 342 342 340 340 339 338 338 338 336 336 336 333 330 329 331 333 332 329 327 321 300 271 251 243 237 229 225 222 218
111 110 107 107 108 106 103 101 99 97 96 94 92 92 91 88 87 85 81 76 73 70 66 63 61 60 59 58 58 55 48 45 43 40 37 34 31 27 23 19 8 351 338 327 328 332 337 342 340 335 339 341 340 341 342 341 341 340 339 338 337 336 336 335 333 333 331 329 330 332 332 332 333 332 328 324 313 291 265 247 239 235 229 224 221
120 118 116 114 113 111 108 105 102 99 98 96 93 92 91 88 85 83 78 74 72 70 65 62 61 61 59 57 54 50 44 39 35 31 30 27 25 25 25 23 16 7 350 324 318 331 336 337 336 335 337 339 340 340 340 340 339 338 338 336 335 334 332 332 332 332 331 330 331 332 329 326 328 331 330 325 316 303 285 259 243 238 236 231 225
127 126 122 119 117 116 113 109 106 103 101 99 95 91 88 85 83 79 75 73 74 74 69 62 59 58 56 52 47 43 38 34 30 26 25 25 23 24 27 28 23 13 359 338 310 323 334 331 330 334 337 338 339 339 339 339 339 338 337 335 333 332 331 331 332 332 331 330 329 327 323 322 322 324 325 324 319 312 301 277 254 243 240 238 231
132 130 125 122 120 119 118 115 110 106 104 101 97 93 89 85 81 78 77 80 81 78 72 63 57 55 51 48 43 39 34 32 30 29 30 29 28 30 31 30 29 23 9 357 329 321 331 331 327 331 337 337 336 338 337 336 337 337 336 333 332 331 331 330 330 330 330 329 326 324 322 322 321 320 320 319 318 319 315 296 272 253 242 240 236
134 131 126 124 124 126 125 121 113 108 106 102 98 97 94 89 83 81 85 89 86 79 71 63 57 54 49 45 42 37 35 34 34 35 36 35 34 36 36 32 30 25 11 356 342 331 332 335 330 330 335 336 334 336 337 335 335 336 334 332 331 330 330 329 328 327 326 325 325 324 325 325 324 322 319 314 313 316 318 308 289 270 252 242 236
131 129 123 123 127 132 131 124 115 109 105 102 100 99 97 92 87 87 90 91 85 76 69 61 57 54 48 43 42 38 37 37 36 37 39 38 38 39 37 33 24 16 6 350 340 336 334 335 333 332 336 338 335 336 338 335 333 333 332 330 330 329 328 327 325 323 322 322 323 323 323 323 323 322 316 311 310 311 314 312 300 286 269 252 240
123 119 118 118 121 128 132 127 119 112 107 103 101 100 98 94 91 91 91 87 80 72 65 60 58 54 47 44 43 41 40 39 37 38 40 38 37 36 31 24 14 7 4 354 341 332 329 329 331 333 335 337 336 336 337 335 332 331 329 329 328 327 325 324 322 321 320 321 320 319 318 318 319 317 313 310 309 307 309 311 306 296 283 267 250
118 115 114 113 113 120 129 128 120 113 109 106 103 101 99 95 94 94 90 83 75 67 62 62 60 54 47 47 46 42 40 39 36 36 37 35 32 30 25 19 13 6 3 358 345 333 322 320 326 333 335 335 335 334 334 333 332 330 328 326 325 324 323 322 321 320 319 319 318 315 315 316 316 316 315 313 310 307 306 305 304 301 292 281 263
119 116 113 109 108 113 122 126 121 114 110 108 105 103 102 99 97 95 92 84 74 65 63 63 62 54 47 47 47 43 39 36 33 31 31 30 27 24 20 15 11 6 2 357 349 339 329 321 323 332 336 335 333 334 335 332 329 328 327 325 324 322 321 320 319 318 318 318 317 315 314 315 315 315 315 314 311 310 305 299 299 301 296 289 277
119 115 110 106 105 109 117 123 121 115 112 111 108 105 103 101 98 97 94 83 73 67 66 67 65 54 44 45 47 42 36 32 28 25 24 24 23 21 17 13 8 3 359 356 351 344 337 331 328 331 336 336 332 332 335 333 328 325 325 324 324 323 321 320 318 317 317 316 315 314 313 313 314 313 313 314 313 308 301 296 294 296 295 291 284
117 112 108 104 103 106 114 120 120 117 114 113 111 108 104 101 99 101 97 86 76 73 73 73 70 53 43 44 46 41 35 28 22 20 19 19 20 19 16 11 7 0 354 352 350 345 340 336 335 334 333 334 333 331 334 335 331 327 326 324 322 322 322 319 316 316 317 316 314 313 312 311 311 312 312 311 308 302 299 298 294 290 290 290 286
112 108 105 105 104 106 113 118 119 120 117 114 112 110 108 104 102 104 103 96 87 84 84 81 71 54 45 45 45 40 34 28 21 17 15 13 13 14 13 9 4 357 350 346 343 340 338 334 334 334 333 332 332 332 334 336 334 330 329 324 318 318 319 316 314 315 316 316 314 312 311 311 310 309 308 305 301 299 299 299 295 289 285 285 286
109 106 103 103 104 108 113 116 119 121 118 113 111 112 114 111 105 103 107 114 106 94 93 87 69 56 50 47 45 40 34 29 24 18 14 11 8 5 5 3 359 353 347 341 337 334 332 330 331 332 332 331 332 332 333 333 330 326 326 323 315 314 316 313 312 314 316 315 313 310 308 309 308 305 304 302 300 300 298 295 292 290 286 282 282
108 106 104 102 103 107 112 116 119 119 116 112 112 116 118 115 109 100 101 124 130 108 96 87 69 59 54 50 46 38 29 24 20 15 13 11 8 4 2 359 356 351 344 339 335 331 327 325 326 328 329 329 332 332 329 327 326 324 324 323 318 316 317 314 312 316 318 317 313 310 307 307 306 303 302 301 300 299 295 291 290 289 287 283 279
107 105 103 101 101 105 110 115 116 115 113 111 114 122 124 120 117 107 99 122 137 126 101 84 69 60 54 51 46 34 23 18 14 9 8 8 6 4 3 2 359 355 348 340 334 331 327 322 321 324 324 324 329 331 329 327 327 325 324 323 320 318 319 317 314 315 318 318 314 308 304 303 303 299 297 298 297 296 293 291 290 288 286 284 279
107 103 101 99 100 104 110 114 114 113 113 114 120 130 132 129 130 126 110 122 137 139 113 86 69 57 49 43 40 31 20 15 10 6 4 2 2 2 2 2 2 1 358 351 342 336 330 323 320 322 322 322 325 329 330 329 327 324 323 323 321 318 316 313 308 306 311 314 311 303 298 299 300 295 293 294 295 294 294 293 292 290 287 286 282
111 102 100 99 99 102 108 113 116 117 116 119 129 137 138 135 130 123 110 114 131 142 118 86 66 52 41 33 31 26 17 11 7 5 2 358 358 360 0 2 3 5 6 2 356 349 341 332 324 323 325 324 321 324 328 329 326 323 323 323 322 318 314 310 304 301 306 310 307 299 294 295 296 293 289 292 295 294 293 293 291 289 287 286 284
117 107 102 100 98 99 104 109 117 123 121 123 137 144 145 139 117 106 105 108 125 137 118 86 64 44 30 24 21 15 11 8 5 3 1 358 356 357 0 6 8 9 9 5 1 358 352 344 334 329 332 330 323 322 326 328 326 322 321 322 321 318 313 308 304 301 305 308 303 296 291 292 295 293 289 293 295 293 291 290 288 286 284 283 283
126 115 107 101 97 97 99 103 112 117 121 132 150 157 157 152 129 110 104 104 121 139 133 100 63 33 18 17 14 6 4 6 6 5 2 358 358 360 4 11 12 10 8 5 1 358 355 351 344 338 338 336 332 328 328 328 327 323 322 321 319 317 313 310 306 303 305 309 305 294 288 292 297 296 293 295 296 293 291 289 286 285 282 280 281
133 126 118 107 100 96 95 99 103 106 112 128 146 156 160 164 157 131 111 103 106 118 125 115 42 11 8 10 7 0 1 5 9 10 7 1 1 4 9 13 13 10 6 3 0 359 357 355 352 347 344 344 342 337 334 331 329 327 326 324 323 323 319 315 311 306 305 308 306 295 286 291 296 296 294 296 296 293 293 291 287 285 283 280 279
139 136 131 119 108 100 96 96 98 101 104 107 112 119 123 138 153 146 128 112 101 97 94 84 54 18 11 8 1 358 1 8 13 15 14 9 6 8 11 13 11 8 4 0 360 1 1 359 357 354 351 351 349 345 341 338 335 334 332 328 329 330 323 317 315 312 309 307 306 301 290 289 295 297 295 296 296 292 291 291 289 288 287 283 279
144 141 137 128 118 108 99 95 95 100 103 100 99 99 100 110 125 133 134 124 108 95 87 83 69 41 21 9 3 1 5 12 18 21 21 17 13 13 14 13 10 5 1 0 359 0 1 0 359 357 355 354 352 348 345 342 341 341 337 331 332 331 324 318 317 314 311 306 307 309 300 292 297 300 299 299 297 292 290 291 294 295 293 290 286
145 139 135 131 127 120 109 100 95 98 102 100 95 92 93 99 106 116 130 129 110 94 86 82 64 34 21 14 12 11 12 17 22 24 22 18 15 14 14 13 10 4 360 0 360 358 357 356 355 354 354 354 353 349 347 345 345 345 342 338 338 334 327 322 318 316 312 307 313 317 306 295 299 300 298 300 300 296 294 294 295 297 295 297 298
Height
837 836 837 837 837 838 838 838 838 837 837 837 837 836 837 837 837 837 837 837 837 837 837 836 836 835 835 834 833 832 832 832 832 832 832 832 831 831 831 831 830 829 828 827 827 826 825 825 824 824 823 822 821 821 820 819 819 819 819 819 819 819 819 819 819 818 818 818 818 818 819 819 820 821 822 822 822 823 823 822 822 822 822 822 823
836 836 836 837 837 837 838 838 838 837 837 837 836 836 836 836 836 836 837 836 837 836 836 835 835 834 834 833 833 833 832 832 832 832 832 831 831 830 830 830 829 828 827 827 827 826 825 824 824 823 822 821 820 820 819 819 818 817 818 818 818 818 818 818 818 818 817 817 817 817 818 818 819 820 821 821 822 822 822 822 822 822 822 822 823
835 835 835 836 836 837 837 837 837 837 836 836 836 836 836 836 836 836 836 836 836 836 835 835 834 834 833 833 833 833 832 832 832 831 831 830 830 829 828 828 827 827 826 826 826 825 825 824 823 822 821 820 819 818 818 817 817 817 816 816 817 817 817 817 817 817 817 816 816 816 817 817 817 818 819 820 821 821 822 822 822 822 822 822 822
834 834 835 835 836 836 836 836 836 836 836 835 835 835 835 835 835 835 835 835 835 835 835 834 833 833 832 832 832 832 832 831 831 830 830 829 829 828 827 827 826 825 825 825 824 824 824 823 822 821 820 819 818 818 817 816 816 816 816 815 815 815 815 816 816 816 816 816 815 815 815 816 816 817 818 819 820 820 821 821 821 821 821 821 822
833 834 834 834 835 835 836 836 836 835 835 835 835 835 834 834 833 833 833 834 834 834 833 833 832 832 832 832 831 831 831 830 830 829 829 828 827 827 826 825 824 824 824 823 823 822 822 822 821 819 818 818 817 816 815 815 815 815 815 815 815 815 814 814 815 815 815 815 815 814 814 814 815 815 816 818 819 819 820 820 821 821 821 821 821
832 833 833 833 834 835 835 835 835 835 834 834 834 834 833 833 832 832 832 832 833 833 832 831 831 831 830 831 830 830 829 829 828 828 827 827 826 826 825 824 823 823 822 822 822 821 821 820 819 818 817 816 815 814 813 814 815 814 814 813 813 813 813 813 813 814 815 814 814 813 813 813 814 814 815 816 817 818 819 820 820 820 820 820 821
832 832 832 833 834 834 835 835 835 834 834 834 833 833 833 833 832 832 832 832 832 832 832 831 830 829 829 829 829 829 828 828 827 826 826 826 825 825 824 823 822 822 821 821 820 820 819 818 817 816 815 814 813 813 812 812 813 813 812 812 811 812 812 812 811 813 814 814 813 813 812 812 812 813 813 814 815 817 818 819 819 820 820 820 820
831 832 832 832 833 834 834 834 835 834 833 834 834 834 833 832 832 832 832 832 832 832 831 830 829 829 828 828 828 828 827 826 826 825 825 824 824 823 823 822 822 821 820 820 819 819 818 817 816 815 814 813 812 811 810 810 810 811 811 810 810 810 810 810 810 811 812 813 813 812 812 811 811 811 812 812 813 815 816 817 818 819 819 819 820
831 831 831 832 833 833 834 834 834 833 833 834 834 833 832 831 831 832 832 832 832 831 830 830 829 828 828 828 827 827 826 825 825 824 824 823 823 822 822 821 820 820 819 819 818 818 817 816 815 814 813 812 810 809 809 809 808 808 808 808 808 808 808 808 808 809 810 811 811 811 811 810 810 810 810 811 812 813 815 816 817 818 818 819 819
830 831 831 832 833 833 833 833 833 834 834 834 833 832 831 831 831 832 832 832 832 831 830 829 828 828 827 827 826 826 825 825 824 823 823 822 822 821 820 820 819 819 818 818 817 817 816 815 814 813 811 810 809 808 807 807 806 806 806 805 806 807 807 807 807 807 808 808 809 809 809 809 809 809 809 809 810 811 813 814 816 817 817 818 818
830 831 832 832 833 833 833 833 833 834 834 833 832 831 830 831 831 832 833 832 831 830 829 828 828 827 827 826 826 825 825 824 824 823 822 822 821 820 820 819 818 818 818 817 817 816 815 814 813 811 810 809 808 806 806 805 804 804 803 803 803 803 803 804 805 805 806 806 806 807 807 807 807 807 808 808 808 809 810 812 813 815 816 816 817
831 831 832 833 833 833 832 833 834 834 833 831 830 830 831 831 832 832 832 831 831 830 829 828 827 827 826 826 825 824 823 823 823 822 822 821 820 819 819 818 818 817 817 816 815 815 814 813 812 810 809 807 806 805 804 803 802 802 801 800 800 800 800 801 802 803 804 804 804 804 805 805 805 805 806 807 807 807 808 810 811 813 814 815 815
831 831 832 833 832 833 833 834 834 832 831 830 830 831 832 832 833 832 832 831 830 829 829 828 827 827 826 825 824 824 823 823 823 822 822 822 820 819 818 818 817 817 816 815 814 814 813 812 811 810 808 806 805 804 803 802 801 800 799 798 797 797 797 798 799 800 800 801 801 801 802 803 803 803 804 805 806 806 807 808 809 810 812 813 814
831 832 832 832 833 834 834 834 832 831 830 830 831 832 833 833 833 832 832 831 831 830 829 828 828 829 828 826 825 824 823 823 822 823 823 822 821 819 818 818 817 817 816 815 814 814 813 812 810 808 807 805 803 802 800 799 799 798 797 796 795 795 795 796 796 796 797 797 798 799 799 800 801 801 802 803 804 805 805 806 807 808 810 811 812
832 832 833 833 834 835 834 832 831 830 831 832 832 833 833 833 833 832 832 832 832 832 831 830 830 830 830 830 829 828 826 824 823 823 823 823 821 820 819 818 818 817 816 815 814 813 812 811 810 808 806 803 801 799 798 797 796 796 796 795 793 793 793 794 793 792 793 795 796 797 797 798 799 799 800 801 802 803 804 804 805 806 807 809 810
833 833 833 834 834 833 832 830 830 831 832 833 834 834 834 833 833 832 832 832 833 833 833 832 832 831 831 832 831 831 831 828 825 823 822 822 821 821 820 819 819 818 816 815 814 814 812 811 809 807 805 802 799 797 796 795 794 795 794 793 792 791 791 792 790 789 789 793 795 795 795 796 796 797 797 799 799 800 802 803 804 805 805 807 808
833 833 833 834 834 832 831 830 831 833 834 835 835 835 834 834 833 832 832 833 834 834 834 833 833 833 833 834 834 834 834 830 827 822 821 822 821 820 820 820 819 818 817 816 815 814 813 811 809 806 804 801 798 796 794 794 793 793 792 791 791 790 789 789 788 786 787 790 792 791 792 793 793 794 795 796 797 798 799 800 802 803 803 805 806
833 834 834 834 833 832 831 832 834 835 836 836 835 835 834 834 833 833 833 834 834 834 835 835 835 835 834 835 836 836 834 831 830 825 821 820 821 820 820 820 820 819 818 816 815 814 813 811 809 806 804 801 798 796 795 794 793 792 791 790 789 788 788 787 785 784 784 788 789 787 789 790 790 791 792 793 794 795 797 798 799 801 801 803 803
834 834 834 833 833 832 833 834 835 837 837 836 836 835 835 834 834 834 835 835 835 835 836 836 836 836 836 836 835 836 835 833 834 831 826 822 820 820 821 820 821 820 819 818 816 814 813 812 810 807 804 801 799 797 795 794 793 791 790 789 787 786 785 784 783 782 782 785 787 785 785 787 787 788 789 790 791 792 794 795 797 798 799 800 801
834 834 834 834 834 834 835 836 837 838 837 836 836 835 835 836 836 836 836 837 837 837 837 837 837 837 837 836 836 836 836 835 835 834 833 828 822 819 820 820 821 821 820 819 817 815 813 812 810 807 804 801 799 797 795 794 792 791 789 788 787 784 783 782 781 780 780 782 784 784 782 783 785 786 787 787 788 789 791 793 794 795 797 798 799
835 835 835 835 836 836 837 838 838 838 837 836 836 836 836 837 837 838 838 838 839 839 839 839 840 839 838 837 837 837 837 837 836 835 835 834 828 824 820 818 818 820 820 819 818 816 814 812 810 808 805 802 799 797 795 793 791 789 788 787 786 784 782 781 779 778 778 778 780 781 781 780 782 783 783 784 785 786 788 789 791 792 793 795 796
836 836 837 837 838 838 838 839 839 838 838 837 837 837 838 839 839 840 840 840 840 840 841 841 841 840 840 839 839 839 839 838 838 837 836 836 834 830 826 822 819 818 819 820 818 816 814 812 810 808 805 802 800 797 794 792 791 789 787 785 784 783 782 780 779 777 776 776 776 778 779 777 776 777 777 778 780 782 784 785 787 788 790 791 793
838 838 839 839 840 840 840 840 840 839 839 838 839 839 840 841 841 842 842 842 842 842 842 842 842 841 841 841 841 841 841 841 841 840 838 837 836 833 831 828 824 819 818 819 819 817 815 813 810 808 805 802 800 797 794 792 789 788 786 784 783 781 780 779 777 776 775 774 773 774 775 774 772 772 773 774 775 777 779 781 782 784 786 787 789
839 840 841 841 841 841 841 841 841 840 840 840 841 842 842 843 843 843 843 843 843 843 843 843 842 842 842 842 843 842 842 843 842 841 840 839 838 836 833 830 826 822 820 819 818 817 815 813 811 809 806 803 800 798 795 791 788 786 784 782 781 779 778 777 776 775 774 772 771 771 771 771 769 769 770 771 771 772 774 776 778 780 782 783 784
841 841 842 842 842 842 842 842 842 842 842 842 843 844 844 845 845 845 845 845 845 844 843 843 844 844 844 844 844 844 843 843 842 841 841 839 838 836 834 832 828 824 821 819 817 816 815 814 812 809 807 803 800 797 795 792 788 785 783 781 779 777 776 776 774 774 773 771 770 769 768 768 766 765 766 767 768 768 770 771 772 775 778 779 780
842 842 843 844 844 844 844 844 844 844 844 844 845 846 846 846 846 846 846 847 846 845 845 845 845 846 846 846 846 845 845 845 844 842 841 840 839 838 835 832 829 825 822 820 818 816 814 813 812 809 807 804 800 797 794 792 789 786 783 780 777 776 775 774 773 772 771 769 768 766 765 765 764 763 762 763 764 764 765 766 768 770 772 775 777
843 843 844 845 845 845 845 845 845 845 846 846 847 847 848 847 848 848 848 848 847 846 847 847 848 848 848 848 848 847 847 846 845 844 843 842 841 840 838 834 831 826 822 820 819 818 815 812 811 809 807 803 800 797 794 791 789 786 783 780 776 775 773 772 771 770 769 767 766 764 764 763 762 761 759 760 760 760 761 763 764 765 767 770 772
844 845 846 846 846 846 846 846 847 847 847 848 849 849 849 849 849 849 849 849 848 848 849 849 850 850 850 850 849 849 849 848 846 845 844 843 842 841 840 838 836 831 825 820 818 817 815 812 809 807 806 804 800 797 795 791 788 785 782 780 777 774 772 770 769 768 767 765 764 763 762 761 760 758 757 756 756 757 758 760 761 761 762 765 767
845 846 846 847 847 847 848 848 848 849 849 850 850 851 851 850 850 850 850 850 850 850 851 851 852 852 852 852 851 851 850 849 848 846 845 844 843 842 840 840 839 837 833 827 821 817 816 813 810 806 804 803 800 797 795 791 788 785 782 779 776 774 771 769 767 766 764 763 762 761 760 758 757 756 754 754 754 753 755 757 758 757 758 760 763
846 847 847 848 849 849 849 849 850 850 851 851 852 852 852 852 851 851 851 851 852 852 853 854 854 854 854 853 853 852 851 850 848 847 846 844 843 842 841 840 839 839 838 835 827 822 818 815 812 808 804 801 799 796 794 791 788 786 782 778 775 773 770 768 766 764 762 761 760 759 757 756 755 754 752 751 751 751 751 752 754 755 755 757 758
847 848 849 849 850 850 850 851 851 852 852 853 853 853 853 852 852 852 853 853 853 854 855 856 856 856 855 854 853 852 851 850 848 847 845 844 843 842 841 840 840 839 838 837 832 826 822 817 813 810 806 801 799 796 793 791 788 785 782 778 775 772 769 766 764 762 760 759 758 757 755 754 753 751 749 748 748 748 748 749 750 752 753 754 754
848 849 850 850 850 851 851 852 853 853 854 854 854 853 853 853 853 854 855 855 855 856 857 857 857 857 856 855 854 853 852 850 848 847 845 844 843 842 841 840 840 839 838 837 833 827 824 821 815 810 807 802 798 796 792 789 787 784 781 777 774 771 767 764 761 760 758 756 755 754 752 751 750 749 747 744 744 745 745 745 745 748 750 750 751
849 850 850 851 851 852 852 853 854 854 854 854 854 854 853 854 855 855 856 856 857 857 858 858 858 858 857 856 855 854 852 850 848 847 845 844 843 842 842 841 840 840 837 836 833 828 823 821 817 811 807 803 798 795 792 788 784 782 779 776 773 769 766 763 760 758 756 754 752 751 749 748 748 747 745 743 741 740 742 741 740 741 744 745 747
850 850 851 851 851 852 853 853 854 854 854 854 854 854 854 855 856 857 857 857 858 859 859 859 859 859 858 857 856 855 853 851 850 848 846 845 844 843 842 841 840 839 837 835 833 829 824 820 816 811 807 803 798 794 792 788 783 780 777 774 771 768 765 762 759 756 753 751 749 748 747 746 745 744 742 741 739 737 737 737 735 736 737 739 741
850 851 851 851 852 852 852 853 853 854 854 854 855 855 856 856 857 857 858 858 859 859 860 860 860 860 859 858 857 856 854 852 850 849 848 846 845 844 842 841 840 838 836 835 832 829 825 820 815 811 807 803 799 795 792 789 785 780 776 772 769 766 763 760 757 754 751 749 747 745 744 743 742 742 740 738 737 735 734 733 732 731 731 732 735
851 851 852 851 851 851 851 852 853 854 855 855 856 856 857 857 858 858 859 859 860 860 861 861 861 860 860 858 858 857 855 853 851 850 849 847 845 844 842 841 840 838 836 834 831 828 825 820 815 812 808 804 800 796 792 788 784 780 775 770 767 763 760 757 755 751 748 747 745 742 740 739 738 737 737 735 734 733 731 729 728 727 727 727 729
851 851 851 851 851 851 851 852 853 854 855 856 857 857 858 858 859 859 860 860 861 861 861 861 861 861 860 859 858 857 855 853 852 850 849 848 846 844 843 841 839 837 834 832 830 827 824 820 815 812 809 805 801 797 793 787 781 776 773 769 765 761 757 754 752 749 746 743 741 739 736 735 734 733 733 732 731 730 729 727 725 725 724 723 724
851 851 851 851 851 851 852 853 854 855 856 857 857 858 859 859 860 860 861 861 861 862 862 862 862 861 861 860 858 857 856 854 852 851 849 848 846 844 842 840 838 836 833 830 828 825 823 819 815 811 808 804 800 796 792 788 783 776 770 766 762 759 755 750 746 745 743 740 737 736 733 731 730 729 728 727 727 727 726 724 723 722 721 720 719
851 851 850 851 851 852 852 853 855 856 857 857 858 859 859 860 861 861 861 862 862 862 863 863 863 862 861 860 859 857 856 855 853 851 850 848 846 844 841 839 837 834 832 829 827 824 821 818 815 811 807 803 800 795 791 788 784 779 773 765 759 755 752 749 744 740 739 737 733 731 731 729 727 726 725 724 723 723 722 721 719 719 718 717 716
851 851 851 851 852 852 853 854 855 856 857 858 858 859 860 861 862 862 862 862 863 863 863 863 863 862 861 860 859 858 857 855 854 852 850 848 845 843 841 839 836 833 831 828 825 823 820 817 814 810 806 802 798 794 790 786 782 778 775 770 762 754 750 746 743 740 736 733 730 727 726 725 723 722 721 720 718 718 717 716 716 715 714 714 713
851 852 852 852 853 853 854 855 856 857 857 858 859 860 861 862 862 863 863 863 863 864 864 864 863 863 862 861 860 859 857 856 854 852 850 848 845 843 840 838 835 833 830 827 825 822 820 817 813 809 806 802 797 793 789 785 782 778 774 771 765 758 751 744 741 741 738 732 727 723 722 722 720 716 716 715 713 712 711 711 711 710 710 710 710
852 853 853 853 854 854 855 856 857 857 858 859 860 861 862 863 863 863 863 863 864 864 864 864 864 863 862 861 860 859 858 856 854 852 849 847 845 842 840 837 835 832 829 826 824 821 819 816 812 809 805 801 797 793 789 785 782 778 774 770 764 758 752 744 736 736 737 733 727 720 716 718 717 712 709 709 708 707 707 706 706 706 705 705 705
853 853 854 854 854 855 856 856 857 858 859 861 862 862 863 863 863 863 863 863 864 864 864 864 864 863 862 861 860 859 857 855 853 851 849 846 844 842 840 837 834 832 829 826 823 820 818 815 812 808 805 801 797 793 789 784 781 777 773 769 764 758 753 747 738 731 732 732 728 719 710 711 714 710 705 704 704 703 702 701 700 700 700 700 701
854 854 854 855 855 856 857 857 858 859 861 862 863 863 863 864 864 863 863 863 863 864 864 864 864 864 863 862 860 859 857 855 853 851 848 846 843 841 839 836 834 832 829 826 823 820 817 814 811 807 804 800 796 791 787 783 779 775 772 768 764 759 754 751 744 734 730 730 727 719 708 706 709 707 701 700 700 699 698 696 695 695 695 695 696
854 855 855 856 856 857 858 858 859 861 862 863 863 864 864 864 864 863 863 864 864 864 865 865 864 864 863 862 860 858 857 855 852 850 847 845 842 840 838 835 833 831 828 826 823 820 817 814 811 807 803 799 795 791 787 783 778 773 769 765 762 758 754 750 744 736 731 729 725 718 707 702 704 703 698 696 696 695 694 692 691 691 690 691 691
855 856 857 857 858 858 859 860 861 862 863 863 864 864 864 864 864 864 864 864 864 865 865 865 864 864 863 861 859 858 856 854 852 849 847 844 842 839 837 834 832 829 827 825 822 819 816 814 810 807 803 799 795 790 786 783 778 773 768 763 758 755 751 747 741 735 729 727 725 717 705 698 700 700 696 694 692 691 691 689 687 687 686 686 687
856 857 858 858 859 860 860 861 862 863 863 864 864 864 864 864 864 864 864 864 864 865 865 865 864 864 862 861 859 857 855 853 851 849 846 844 841 839 836 834 831 829 826 824 821 818 815 813 810 806 802 798 794 790 785 782 778 773 768 762 757 752 747 742 737 732 727 724 723 718 705 697 698 697 694 692 689 687 686 685 683 682 681 681 681
857 857 859 859 860 861 862 862 863 863 864 864 864 864 864 864 864 864 864 864 864 865 865 865 864 863 862 860 859 857 855 853 851 849 846 844 842 839 836 833 831 828 826 823 821 818 815 812 808 805 801 797 793 789 784 780 776 770 765 760 755 750 744 738 733 728 723 719 718 716 707 698 696 696 692 688 686 682 681 680 679 677 676 676 676
857 858 859 860 861 862 863 864 864 864 865 865 865 864 864 864 864 864 865 865 865 865 865 864 864 863 861 860 858 857 854 852 850 848 846 844 841 839 836 833 830 828 825 822 819 817 814 810 807 803 799 795 791 787 783 778 774 768 762 756 752 747 741 735 729 725 721 716 713 712 707 699 695 694 690 685 683 679 676 674 673 672 671 670 671
857 858 860 861 862 863 864 865 865 865 865 865 865 864 864 864 864 864 864 865 864 865 864 864 863 862 861 859 858 856 854 852 850 848 846 844 841 838 835 833 830 827 824 821 818 815 812 808 805 801 797 793 789 785 781 776 772 768 762 756 750 746 740 734 728 722 716 712 710 709 705 698 694 693 689 683 678 675 672 670 668 667 667 666 667
857 858 860 861 863 864 865 865 866 866 866 865 865 865 864 864 864 864 864 864 864 864 864 863 862 861 860 859 857 856 854 852 850 848 846 844 841 839 836 833 830 827 824 821 818 814 811 807 803 799 795 791 787 783 779 775 770 766 762 756 750 744 739 734 728 721 714 709 707 707 704 697 693 691 689 684 677 670 668 667 666 665 664 664 664